Regional Weather Roundup
Issued by NWS

Home | Current Version | Previous Version | Graphics & Text | Print | Product List | Glossary On
Versions: 1 2 3 4 5 6 7 8 9 10 11 12 13 14 15 16 17 18 19 20 21 22 23 24 25 26 27 28 29 30 31 32 33 34 35 36 37 38 39 40 41 42 43 44 45 46 47 48 49 50
000
ASUS45 KSLC 262210
RWRUT

UTAH REGIONAL WEATHER ROUNDUP
NATIONAL WEATHER SERVICE SALT LAKE CITY UT
400 PM MDT TUE JUL 26 2016

UTZ001>011-023>025-262300-

NORTHERN UTAH

CITY           SKY/WX    TMP DP  RH WIND       PRES   REMARKS
BRIGHAM CITY     N/A     97  28   8 S10       30.01F HX  91
DUGWAY         MOSUNNY  102  19   5 NW10      30.02F HX  94
HILL AFB       MOSUNNY   97  35  11 W10G22    30.06F HX  92
LOGAN          SUNNY     98  35  11 W12G18    30.01F HX  93
OGDEN          SUNNY     97  34  11 W12       30.02F HX  91
PROVO AIRPORT  MOSUNNY   97  43  15 SE7       30.01F HX  92
SALT LAKE CITY MOSUNNY  102  34   9 NW12      29.99F HX  96
VERNAL         CLOUDY    84  36  18 NW15G32   30.14F
WENDOVER       SUNNY     99  34  10 SE12      30.00F HX  93
HEBER CITY     MOSUNNY   95  32  11 W8        30.10F HX  90

$$

UTZ012>022-026-027-262300-

SOUTHERN/CENTRAL UTAH

CITY           SKY/WX    TMP DP  RH WIND       PRES   REMARKS
BLANDING       MOSUNNY   90  41  17 W7        30.23F
BRYCE CANYON   PTSUNNY   80  43  26 SE12      30.35F
CEDAR CITY     MOSUNNY   94  41  16 SW10      30.13F HX  90
DELTA          SUNNY     99  28   8 W10       30.04F HX  92
MILFORD        MOSUNNY   97  35  11 S14G21    30.06F HX  92
MOAB/CYNLANDS  SUNNY    100  39  12 CALM      30.00F HX  95
PRICE          PTSUNNY   93  30  10 N5        30.13F
ST GEORGE      PTCLDY   106  46  13 W14       29.91F HX 102

$$

REGIONAL REPORTS     COLORADO/ARIZONA

CITY           SKY/WX    TMP DP  RH WIND       PRES   REMARKS
CRAIG, CO      CLOUDY    77  39  25 VRB5      30.26R
GRAND JUNCTION CLOUDY    97  38  13 VRB7      30.06F HX  92
RIFLE          CLOUDY    86  36  16 NW13G28   30.15F
MONTROSE       CLOUDY    90  39  16 W7        30.18F
CORTEZ         SUNNY     91  43  18 W7        30.16F
PAGE, AZ       SUNNY    101  39  12 CALM      30.02F HX  96
GRAND CANYON   MOSUNNY   85  44  23 CALM      30.26F
KINGMAN        MOSUNNY  103  45  14 MISG      29.98F HX  99
FLAGSTAFF      TSTM      68  57  68 S13       30.32S

$$

REGIONAL REPORTS    NEVADA/IDAHO/WYOMING

CITY           SKY/WX    TMP DP  RH WIND       PRES   REMARKS
LAS VEGAS, NV  MOSUNNY  109  33   7 W6        29.80F HX 102
ELY            SUNNY     93  16   6 SE6       30.18F
ELKO           SUNNY     97  11   4 W18G25    30.11F HX  90
POCATELLO, ID  SUNNY     97  26   8 W14       30.03F HX  91
BURLEY         SUNNY     90  49  24 W10       30.01F
EVANSTON, WY   CLOUDY    90  22   8 W23G32    30.24F
ROCK SPRINGS   CLOUDY    80  29  15 E8G30     30.27R
KEMMERER         N/A     84  23  10 W15G22    30.26S

$$



USA.gov is the U.S. government's official web portal to all federal, state and local government web resources and services.